[Date Prev][Date Next][Thread Prev][Thread Next] - [Date Index][Thread Index][Author Index]

2 Line ISS Keps 11-24



ISS
1 25544U 98067A   01328.20588799  .00052656  00000-0  59087-3 0  7547
2 25544  51.6398   3.8411 0010292  12.7217  31.9672 15.62055750172054


----
Via the sarex mailing list at AMSAT.ORG courtesy of AMSAT-NA.
To unsubscribe, send "unsubscribe sarex" to Majordomo@amsat.org



AMSAT Top AMSAT Home